Retour au catalogue

OV1-14

ActifMilitaireHEO
NORAD 3174·PAYLOAD·🇺🇸 United States

Lancé Apr 6, 1968 depuis Vandenberg Space Force Base

Loading…

Prochains Passages (prochaines 24 heures)

TLE

FraisSource: Space-Track

Époque: Sep 13, 2026, 04:09 UTC

1 03174U 68026B   26256.17354406  .00000109  00000-0  19331-3 0  9998
2 03174  99.9939  26.4721 4011787 234.8482 333.1287  6.96775230482440

Suivez OV1-14 en temps réel avec AllMySat

Download on the App Store